Theta_e
302 301 300 299 299 298 297 298 296 295 296 294 293 292 292 292 291 291 289 289 289 289 289 289 289 289 289 289 288 288 288 288 289 288 288 287 286 286 286 285 284 283 284 283 284 284 283 282 281 282 282 282 283 283 283 283 284 284 285 285 285 284 283 281 279 279 281 283 284 283 283 282 280 281 280 281 281 282 282 281 281 281 281 281 281
301 301 300 300 298 298 297 296 298 295 294 292 291 291 290 290 290 289 288 288 289 289 289 289 289 289 289 288 288 288 288 287 287 287 286 285 284 285 284 284 283 283 282 282 282 283 282 280 280 280 281 281 281 281 282 281 281 281 281 284 282 283 283 280 279 278 278 280 280 282 281 282 279 282 280 280 280 281 280 281 281 281 281 281 280
302 301 300 299 298 297 296 296 296 294 294 291 290 290 290 289 289 288 288 288 289 289 289 288 288 289 288 288 288 287 287 286 286 285 285 284 283 284 285 284 283 282 282 282 281 281 280 280 280 280 281 280 280 280 281 280 281 280 280 281 280 281 281 282 279 278 278 279 280 279 280 280 279 279 281 281 281 280 279 279 280 281 282 281 280
301 301 300 299 298 296 296 295 294 294 294 292 290 289 289 288 288 288 287 287 287 288 289 288 288 288 287 287 286 286 285 285 284 285 284 284 283 283 283 283 283 282 282 281 280 280 280 279 279 279 279 279 280 280 281 281 281 280 280 280 280 280 280 279 279 278 278 278 279 279 279 278 279 280 281 280 279 279 279 280 281 281 281 281 281
300 300 299 297 297 296 295 295 295 293 292 290 289 289 288 287 287 287 287 286 287 287 287 287 287 287 287 286 286 285 284 284 284 284 284 284 283 283 283 283 283 282 281 280 281 280 280 279 279 279 279 279 280 280 280 280 280 280 280 280 279 279 280 279 278 279 278 277 278 279 279 279 279 279 279 278 278 279 279 279 279 280 280 281 281
299 298 298 297 296 295 295 293 293 291 291 289 289 288 287 286 286 286 286 286 286 286 286 286 286 286 286 285 285 284 284 284 284 283 283 283 283 283 283 282 282 281 280 280 280 280 280 280 279 279 279 279 280 280 280 280 280 280 280 279 280 279 279 278 279 278 278 277 277 277 279 278 278 279 279 279 278 277 278 279 279 280 279 279 280
298 297 297 296 296 295 294 293 292 291 291 290 289 287 286 286 286 285 286 286 285 285 285 285 285 285 285 285 284 284 284 284 284 283 283 283 282 282 281 281 281 280 280 279 279 279 280 280 280 280 280 280 281 281 280 280 280 279 280 279 280 279 279 279 278 278 277 277 277 278 278 279 279 277 279 279 278 278 277 276 277 279 279 279 278
297 297 296 295 295 295 294 293 292 291 290 290 288 287 286 286 285 286 286 285 285 285 284 284 285 285 285 284 284 284 284 283 283 283 282 282 282 281 281 280 280 279 279 279 279 279 279 280 281 281 281 281 281 281 281 280 280 279 280 279 279 279 278 278 278 278 277 277 277 277 278 278 278 279 279 278 277 277 278 277 276 277 278 278 278
296 296 296 295 295 295 294 293 292 291 290 289 287 286 285 285 285 285 285 285 285 285 284 284 284 284 284 284 284 284 283 283 283 282 281 281 282 281 281 280 279 278 278 278 279 279 279 280 281 281 282 283 283 283 283 283 281 280 279 279 279 279 278 278 278 278 278 278 277 278 278 277 278 278 277 277 277 277 278 278 277 277 277 277 278
296 295 295 295 295 294 294 293 291 290 289 288 287 286 285 285 284 284 284 284 284 284 284 284 284 284 283 283 283 283 282 283 283 285 284 282 281 282 281 280 279 279 278 278 278 279 279 280 281 282 282 283 282 283 283 282 283 281 280 280 280 279 278 278 278 278 278 277 277 277 276 276 277 278 278 278 278 278 278 277 276 277 277 277 277
295 295 294 295 294 294 292 291 290 290 289 288 287 286 286 285 284 284 284 284 284 284 283 283 284 284 283 283 282 282 282 281 284 286 286 286 282 281 280 280 280 279 278 278 277 278 279 280 280 281 282 282 282 282 282 282 282 282 282 282 282 280 278 278 277 277 277 276 277 277 277 276 277 278 278 278 278 277 277 277 277 276 275 274 272
295 295 294 294 294 292 291 291 290 290 289 287 286 286 285 285 285 284 284 284 284 284 283 283 283 283 283 282 282 281 281 283 286 286 286 286 284 281 281 280 279 279 279 278 278 279 279 279 280 280 280 280 280 280 281 282 282 282 282 282 282 282 282 279 277 277 277 276 276 276 276 276 277 277 277 277 277 277 278 277 277 276 275 274 274
295 294 294 293 293 292 291 290 290 289 288 287 286 286 285 285 284 284 284 284 284 283 283 283 282 282 282 281 281 281 280 285 286 287 287 286 285 283 281 280 279 279 279 279 279 279 279 279 279 279 280 282 281 280 279 280 282 282 282 282 282 283 283 283 282 279 278 277 276 275 276 277 276 277 278 278 278 277 277 277 277 276 276 275 275
294 293 293 293 292 291 291 290 289 289 288 287 286 285 285 284 284 284 284 284 283 283 283 282 282 282 281 281 281 280 280 284 286 287 287 286 286 284 281 280 280 280 279 279 279 279 280 280 280 280 280 280 280 280 279 279 279 280 280 280 280 281 282 283 283 282 281 278 276 275 277 278 276 277 278 279 277 276 276 275 276 275 275 274 275
293 293 292 292 291 291 290 290 289 289 287 286 285 285 284 284 284 284 284 283 283 282 282 282 282 282 281 281 280 280 279 284 286 287 287 287 286 283 281 281 280 280 279 279 279 280 280 280 281 281 281 280 280 280 279 279 279 279 279 279 280 280 280 281 281 281 281 280 279 278 278 279 278 279 279 279 279 278 277 276 275 275 275 275 275
293 292 292 291 291 291 290 290 289 288 286 285 285 284 284 284 284 284 283 283 283 283 282 282 282 281 281 280 280 279 279 284 286 286 287 287 287 282 281 280 280 280 279 279 280 280 281 281 281 281 282 281 281 282 281 279 278 277 276 277 277 278 279 282 283 284 282 281 281 280 280 280 282 280 280 279 279 278 279 279 278 275 273 272 271
292 292 291 291 290 289 289 289 288 286 286 285 284 284 284 284 284 284 283 282 282 282 282 281 282 281 281 280 280 279 279 283 285 286 287 287 286 283 281 280 280 279 279 280 279 280 280 280 281 281 281 281 282 283 283 281 277 276 275 275 275 275 276 278 281 282 283 284 285 285 285 285 286 286 286 286 284 282 279 277 276 275 271 270 271
292 292 292 291 290 290 289 289 287 286 285 285 285 284 284 284 284 284 282 282 281 281 282 281 282 282 281 280 280 280 280 281 285 286 287 287 286 282 280 279 279 279 280 280 280 280 280 282 282 281 281 281 283 284 284 282 278 277 276 275 274 273 275 276 277 278 281 282 282 282 283 283 283 283 284 284 284 283 279 276 277 276 272 271 270
291 291 291 291 290 289 289 288 287 286 285 285 285 284 284 284 284 284 283 283 282 282 282 281 281 281 281 280 281 280 280 281 284 286 286 287 286 283 281 280 280 279 279 279 280 280 280 281 282 282 281 281 283 283 284 282 279 278 277 276 275 274 276 277 276 276 275 274 276 276 277 278 278 278 278 280 281 281 279 278 278 276 274 273 272
291 291 292 290 289 288 288 287 286 285 285 285 285 285 285 285 284 283 283 283 283 282 282 281 281 281 281 280 280 280 279 279 282 285 286 287 286 284 283 280 280 279 280 280 280 280 280 281 282 283 284 283 283 283 283 283 280 279 278 277 276 276 277 276 276 276 275 276 275 276 276 276 277 277 277 277 278 279 279 279 278 277 275 273 272
291 291 291 290 289 288 287 287 286 286 286 285 285 285 285 284 284 283 283 283 282 281 281 281 281 280 280 279 279 279 279 279 281 285 286 287 287 285 284 282 282 282 282 282 282 282 282 282 282 283 284 284 284 283 283 283 283 280 279 278 278 279 279 278 278 279 277 277 277 277 276 276 276 277 276 277 277 278 278 279 277 276 274 272 271
290 290 289 288 288 287 286 286 286 286 285 285 285 285 285 284 283 283 282 282 281 280 280 280 280 279 279 279 279 278 280 280 280 284 286 286 287 286 284 284 285 284 284 284 284 283 284 284 283 284 284 284 284 284 284 284 284 282 281 282 283 283 281 281 281 280 279 278 277 276 276 275 275 275 276 276 276 277 276 275 275 274 274 273 271
289 288 288 287 286 286 286 286 286 286 285 285 285 284 284 283 283 282 282 281 280 279 279 279 278 278 278 278 279 278 279 280 281 281 285 286 286 287 286 285 286 285 284 284 284 284 285 284 284 285 285 285 285 285 285 285 284 283 285 285 284 284 284 282 282 280 279 278 277 276 276 276 275 276 276 276 276 275 274 273 273 273 272 273 273
287 287 286 286 286 285 285 285 285 285 285 285 285 284 283 282 282 282 281 280 280 279 279 278 278 278 277 277 278 278 279 279 281 281 282 285 286 287 287 286 286 285 285 284 284 284 283 283 283 286 285 285 284 285 285 284 284 284 285 285 284 284 282 282 281 280 280 279 278 277 276 276 276 276 276 275 273 272 271 271 270 271 271 270 271
286 286 285 285 285 285 285 285 285 285 285 285 284 283 282 282 281 281 281 280 280 279 278 279 278 278 278 277 277 278 278 278 279 280 281 282 284 285 286 287 287 287 285 285 285 284 285 286 286 284 284 284 284 284 284 283 284 284 283 283 283 281 281 280 280 279 278 277 277 277 277 277 277 275 273 271 270 270 269 269 269 268 268 268 268
285 285 285 285 285 285 284 285 285 285 285 285 284 283 282 282 281 281 280 280 280 279 279 279 279 278 278 278 278 278 278 278 278 279 280 281 282 283 284 285 285 285 285 285 285 285 285 285 284 284 283 283 282 282 281 281 282 282 282 282 280 280 280 279 279 278 277 277 277 277 277 277 272 270 270 270 269 268 268 267 267 266 265 264 264
285 285 285 285 285 285 285 285 285 284 284 285 284 283 283 282 281 281 281 280 280 280 279 278 278 279 278 279 279 279 278 278 278 278 279 279 279 280 281 282 283 283 283 283 283 283 283 283 282 281 280 280 280 280 279 279 279 280 280 280 280 280 279 279 278 277 277 277 277 277 277 272 270 269 269 269 268 268 268 266 266 265 265 264 263
285 284 285 285 285 285 284 280 283 284 284 284 283 283 282 282 281 281 281 281 280 280 280 279 279 279 279 280 280 279 278 278 277 277 277 278 278 279 279 279 279 280 280 280 280 279 278 278 277 276 276 275 275 275 275 276 276 277 276 278 279 279 279 280 279 278 278 278 277 276 271 270 270 270 268 268 267 266 266 265 265 265 265 263 261
285 284 284 284 284 283 283 283 283 283 283 283 283 283 282 282 282 282 283 284 283 282 281 281 281 281 281 280 279 278 278 277 278 280 278 279 278 278 277 278 278 279 280 281 277 275 274 274 274 274 274 274 274 273 274 274 274 275 273 274 276 277 277 276 275 275 276 276 275 275 273 270 269 269 267 267 267 265 264 263 265 264 264 264 261
284 283 283 283 283 282 282 283 283 282 282 282 280 278 279 283 284 282 281 282 284 285 284 282 282 282 281 281 281 279 278 279 281 281 280 280 280 280 279 279 279 278 279 280 277 274 274 273 274 273 273 273 272 273 273 274 273 273 273 275 276 275 275 275 275 275 275 274 273 272 271 271 270 269 268 267 266 266 265 265 263 264 262 262 261
282 282 282 282 282 282 282 282 282 282 282 280 280 279 279 279 282 282 282 281 282 282 282 283 283 283 281 279 280 282 282 282 281 281 280 280 280 280 280 279 279 279 278 276 275 273 273 273 273 273 273 273 273 274 274 273 273 273 273 274 274 274 274 273 273 273 273 272 270 269 269 269 268 269 267 266 266 266 264 264 263 263 262 261 260
281 281 282 281 281 281 282 281 281 281 280 280 279 279 278 277 277 280 281 281 281 281 281 281 281 281 281 280 278 278 280 281 281 280 280 280 280 280 280 279 279 279 279 278 275 275 275 275 275 275 275 274 274 274 274 274 274 274 274 273 273 274 274 273 273 273 271 270 269 268 267 267 268 268 268 267 266 266 264 262 262 261 261 261 261
281 281 281 280 280 280 280 280 280 280 279 279 278 278 278 277 275 276 278 280 281 281 281 281 281 280 280 280 280 279 279 280 280 280 280 280 280 280 280 280 280 280 280 277 276 275 276 276 275 275 275 274 275 274 274 274 274 274 274 273 273 274 274 273 273 272 270 270 270 269 269 268 267 266 266 266 264 263 264 263 263 261 260 259 260
281 281 280 280 280 279 279 279 279 279 279 279 279 279 278 278 276 276 275 276 277 279 280 281 280 280 280 280 280 280 280 280 280 280 280 280 280 280 280 279 281 281 280 277 277 276 277 276 276 275 275 275 275 275 274 274 274 274 274 274 273 274 271 270 270 270 270 270 270 269 269 268 266 264 264 263 263 263 262 261 261 259 259 259 258
280 276 275 276 279 279 279 279 279 278 278 278 278 278 278 277 276 276 275 275 274 274 274 276 279 280 279 280 280 280 280 280 280 280 280 280 280 280 280 278 277 277 278 278 277 277 276 276 276 276 275 275 275 275 274 274 274 273 273 273 273 273 270 269 269 269 269 269 269 268 267 265 263 263 262 262 261 260 260 259 259 259 258 258 257
277 277 277 277 278 278 278 278 278 278 278 278 278 278 277 276 276 276 276 275 275 274 273 273 273 277 279 280 280 280 280 280 280 280 280 280 280 280 277 276 276 276 276 277 277 277 277 276 276 276 275 274 274 274 274 273 273 273 273 272 271 271 271 269 268 266 265 266 266 267 265 263 262 261 262 261 260 260 260 259 258 258 258 257 257
276 276 276 277 277 277 277 277 277 277 278 276 277 276 276 276 276 276 276 275 273 272 271 270 271 272 273 273 276 278 278 278 278 279 279 279 280 279 277 277 277 277 276 276 274 273 273 272 271 271 271 271 271 271 271 271 271 271 271 271 270 269 268 268 268 266 264 264 265 264 264 264 262 261 260 259 259 258 258 258 258 258 258 258 258
276 276 276 276 276 275 275 275 273 274 274 274 274 274 274 274 274 275 274 274 272 270 270 270 271 271 271 271 274 275 276 278 278 277 277 277 276 275 275 274 274 274 273 272 271 271 270 270 270 269 270 269 269 269 269 269 270 269 269 268 268 267 269 268 266 263 262 264 264 263 262 261 260 258 259 258 258 258 258 257 256 256 257 257 256
273 274 274 274 275 274 273 271 271 272 272 273 273 273 272 272 272 272 272 271 271 270 269 270 270 270 270 270 271 273 274 273 273 272 272 272 272 273 272 272 271 271 271 270 269 269 269 269 268 268 268 268 268 268 268 268 268 267 266 265 265 265 264 264 263 262 261 261 262 261 260 260 258 258 258 257 257 257 256 256 256 256 255 255 255
271 271 273 273 273 272 271 270 271 272 271 272 272 271 271 271 271 271 271 270 270 269 270 269 269 268 267 269 270 271 271 271 272 271 270 270 270 270 269 269 269 268 267 266 266 266 266 267 267 266 266 265 265 265 265 264 264 264 263 263 262 262 262 262 263 262 260 260 260 259 258 258 258 257 256 257 257 256 255 255 255 255 255 255 255
271 271 270 273 272 271 270 271 271 271 271 271 271 271 271 270 270 270 270 270 269 269 269 268 267 266 266 268 272 272 270 270 269 268 268 268 267 266 267 267 267 266 266 265 265 264 264 264 264 263 263 262 262 261 261 261 261 262 261 261 261 261 261 260 258 259 259 258 258 258 258 257 257 255 255 256 259 257 256 256 255 255 255 255 254
271 270 270 270 270 270 270 270 270 268 269 269 271 270 269 269 269 269 268 268 267 267 266 265 264 265 267 270 271 272 268 267 267 266 266 265 265 264 265 264 264 263 264 263 263 262 262 261 262 262 261 260 260 260 260 259 259 259 260 260 259 259 259 259 258 257 256 257 256 256 256 256 256 256 256 260 255 255 255 254 254 254 254 254 254
270 269 269 269 270 270 269 268 268 268 269 269 268 266 267 268 268 267 267 266 266 265 265 264 264 265 267 270 271 270 266 265 264 264 264 263 263 263 262 262 262 261 260 260 261 260 260 260 260 261 260 259 259 259 259 259 259 259 259 258 258 258 257 258 258 256 255 255 255 255 253 254 256 255 254 255 254 254 254 253 253 253 253 253 253
269 268 268 268 268 267 267 268 268 268 267 265 265 265 265 266 266 266 265 265 265 265 264 264 265 266 266 268 268 266 264 263 263 263 262 262 262 262 262 261 261 260 259 259 259 258 259 258 259 259 257 257 257 256 257 258 258 257 257 258 257 257 257 257 257 256 256 255 255 254 253 253 254 254 255 255 253 253 253 252 252 252 252 252 252
268 267 267 267 266 266 266 266 265 264 263 264 264 264 264 265 265 265 264 264 264 264 264 264 263 263 263 264 264 263 262 262 262 261 261 261 260 260 261 259 258 257 258 258 258 256 256 257 256 256 255 256 256 255 255 256 256 256 257 257 256 257 256 255 256 256 256 254 255 254 254 254 252 253 253 253 253 252 253 252 252 254 252 251 251
267 266 266 265 265 264 264 264 263 264 264 264 264 264 264 264 264 264 264 263 263 263 262 262 262 262 262 262 261 260 260 260 260 260 259 259 259 258 258 257 257 256 257 257 256 253 255 255 255 255 254 255 255 255 255 254 254 254 254 255 255 256 257 256 255 254 254 253 253 254 254 253 252 253 254 253 253 253 251 251 251 251 251 251 251
266 266 265 265 264 263 263 263 264 264 264 264 263 263 263 263 263 262 261 262 262 261 261 261 261 261 261 260 260 259 259 259 258 258 257 256 255 256 256 255 255 255 255 255 253 254 252 252 253 253 253 253 254 253 254 255 254 254 254 254 255 254 254 255 254 253 253 252 253 253 253 253 253 253 253 253 253 252 252 251 251 250 250 251 250
265 265 264 263 263 262 262 263 262 261 262 262 262 262 261 261 261 261 260 260 261 260 260 260 260 260 259 259 259 258 258 258 258 257 257 256 255 255 254 253 253 254 254 254 253 253 253 253 252 252 252 252 252 252 253 253 253 254 254 254 254 253 254 254 252 252 252 252 251 251 251 251 252 253 253 252 251 252 251 251 251 251 250 250 251
264 263 263 262 262 262 261 261 261 262 261 261 261 261 260 261 260 260 260 260 260 260 260 259 259 259 258 258 258 257 257 257 256 256 256 256 255 254 254 253 253 253 254 253 253 252 252 252 252 252 252 251 252 252 252 252 253 253 252 252 253 255 255 253 252 251 253 252 251 250 250 250 250 251 252 251 252 251 251 250 250 251 251 250 250
263 262 262 262 262 262 262 262 262 261 260 261 261 260 260 260 260 259 259 259 259 259 259 259 258 258 258 257 257 257 256 256 256 256 256 256 256 255 254 252 251 251 252 252 253 253 252 251 250 251 251 250 251 251 252 252 252 253 251 253 255 256 255 254 253 253 252 250 251 251 251 251 250 251 251 251 250 250 250 250 250 251 250 249 249
261 261 261 261 261 261 261 261 261 261 260 260 260 260 259 260 259 259 259 259 259 258 258 257 257 257 257 257 257 257 256 256 256 256 256 255 255 254 253 253 252 251 251 251 252 252 252 251 252 252 251 251 251 251 251 252 251 252 253 255 256 256 255 255 253 253 253 252 250 251 251 251 250 250 250 251 250 249 250 250 250 249 249 249 249
Wind_Speed
12 11 9 10 10 11 9 11 10 7 9 9 10 9 8 8 7 6 5 6 7 8 7 9 8 8 10 9 10 9 9 9 7 8 7 8 7 8 8 8 9 7 8 7 5 6 6 7 6 5 4 4 3 3 2 2 1 1 1 1 2 1 2 2 3 4 0 2 1 3 4 3 3 5 5 4 3 4 7 6 5 4 4 3 3
12 11 10 9 11 10 11 9 11 9 10 9 10 9 8 8 8 7 8 7 8 8 8 9 8 9 9 10 10 9 9 9 8 8 8 9 7 7 7 9 9 9 8 7 6 4 6 7 6 5 3 3 4 3 3 3 2 2 2 2 1 2 2 2 3 2 4 2 3 3 4 5 3 3 5 5 4 3 4 5 4 4 4 3 3
11 11 10 10 10 10 10 11 10 11 11 9 11 10 9 9 8 9 9 8 8 8 9 9 9 9 9 10 10 10 10 9 8 9 9 11 10 9 7 9 9 10 9 8 6 6 7 6 6 5 3 4 3 2 3 3 2 2 2 2 2 2 2 1 2 3 4 5 2 2 3 4 5 3 3 3 3 4 5 5 4 3 3 3 4
11 12 11 11 11 10 12 10 11 12 12 10 11 10 9 9 8 9 9 8 9 8 8 10 9 9 10 10 10 10 10 9 9 9 10 10 11 10 8 8 8 9 9 8 6 6 8 7 5 5 5 4 3 3 3 3 3 2 2 2 2 2 1 2 2 2 3 5 4 3 3 2 3 2 3 3 4 5 5 4 3 4 4 4 5
11 12 12 12 12 11 11 12 13 12 12 10 12 10 10 9 9 10 9 9 9 9 8 9 9 10 10 11 11 10 10 10 10 10 9 9 10 9 9 8 8 8 9 9 7 7 7 7 7 7 6 5 4 4 3 4 2 2 2 2 2 2 2 1 2 2 3 6 6 4 2 2 3 4 3 4 4 5 4 4 4 5 5 5 5
12 12 11 12 12 12 11 11 13 13 14 11 11 11 11 11 11 10 10 11 10 10 10 10 10 10 10 10 11 11 11 11 11 11 10 9 8 8 8 8 9 9 9 8 6 7 7 7 7 7 6 6 4 4 4 5 4 4 3 3 2 2 2 2 3 3 4 5 6 6 4 4 4 5 4 4 4 4 4 4 4 5 6 5 5
12 12 12 12 12 13 13 12 10 11 12 13 12 11 12 11 12 12 11 11 12 11 10 10 9 9 10 10 10 11 11 10 10 10 10 9 10 9 8 8 8 8 7 6 7 7 7 6 6 6 5 5 5 4 5 5 4 4 4 3 2 3 3 3 3 4 4 5 6 6 5 5 5 7 3 2 3 3 5 6 7 5 5 5 5
12 12 12 12 13 13 12 11 11 11 10 12 13 13 13 12 12 11 11 12 12 12 12 12 10 9 10 10 10 10 10 10 10 10 10 10 10 10 10 9 7 7 7 8 7 7 6 6 5 5 5 5 5 4 4 5 4 4 4 3 3 4 4 3 3 4 4 5 6 5 5 5 5 5 3 2 3 5 6 6 7 5 3 3 4
12 12 13 13 13 12 12 11 10 11 12 12 13 14 12 12 12 11 11 10 9 11 11 11 11 10 10 10 10 10 11 11 10 11 11 10 10 11 11 11 9 8 7 6 7 7 6 5 5 5 6 6 7 4 3 4 4 3 4 5 5 5 3 3 3 3 4 4 5 5 5 6 6 5 5 5 6 7 3 3 5 5 5 6 5
12 13 13 13 11 11 12 11 11 12 13 13 14 14 12 12 11 11 11 10 10 9 10 11 11 12 12 11 10 9 10 9 12 17 15 13 12 10 10 10 10 9 8 8 7 7 7 6 5 7 7 7 7 5 4 4 5 4 4 5 4 4 4 4 4 4 4 6 5 4 6 8 8 6 6 6 5 4 5 4 7 6 5 7 6
12 12 13 12 11 11 11 13 12 13 13 12 12 14 13 12 12 12 12 12 12 10 9 11 11 11 13 14 14 11 10 8 14 13 13 13 12 12 11 9 9 11 10 10 9 8 7 6 5 7 7 5 7 9 9 10 11 10 9 7 5 6 6 6 6 6 7 7 5 5 7 9 9 6 6 6 5 5 5 5 6 6 6 5 8
12 13 12 11 12 13 13 13 13 13 12 13 13 11 10 10 11 11 11 10 9 7 9 11 11 11 11 12 13 12 11 12 15 15 15 16 13 12 10 9 9 10 9 9 8 9 9 7 6 5 6 8 6 6 10 13 13 14 14 14 14 13 10 9 8 7 8 7 7 9 7 9 10 6 7 6 6 5 5 5 6 6 7 6 6
12 12 12 13 13 13 12 13 13 12 13 11 11 10 10 10 10 10 11 9 8 10 11 10 10 9 10 10 11 10 8 12 17 18 17 17 16 12 9 9 9 8 10 10 10 9 8 7 6 6 6 9 8 6 6 7 12 14 14 15 15 17 17 18 16 10 5 7 9 10 10 8 9 9 5 5 4 7 5 6 6 6 7 8 7
12 13 12 12 13 13 13 12 12 12 10 10 11 11 11 11 10 9 9 9 9 9 8 9 7 8 10 10 9 8 10 15 18 18 17 17 16 13 8 10 9 10 11 11 9 10 9 9 8 7 7 7 7 7 7 7 5 7 8 8 8 11 15 18 19 19 14 9 10 12 12 6 9 8 4 3 4 5 5 7 6 6 7 8 8
12 11 13 12 12 13 13 13 13 10 10 10 11 12 12 10 10 9 9 10 10 11 11 11 10 8 7 8 9 9 7 13 17 17 16 16 18 13 9 9 8 7 8 9 10 10 10 9 8 7 7 7 8 8 7 7 5 5 5 6 6 7 7 9 11 10 10 11 11 12 12 8 8 7 6 5 7 6 4 6 6 7 7 5 7
12 11 13 13 13 13 13 13 11 10 12 11 11 11 11 12 11 9 9 8 7 6 6 7 9 11 11 11 10 9 8 14 16 17 18 18 19 10 8 9 8 7 7 8 9 8 9 9 8 8 8 8 9 14 10 6 4 6 7 6 6 6 7 8 10 10 10 10 10 11 10 9 10 8 7 5 3 4 5 7 7 3 3 8 10
13 13 13 12 12 12 13 13 10 10 12 11 12 12 12 11 9 8 10 9 10 10 10 11 10 10 10 9 9 8 8 14 18 18 19 21 15 7 8 7 7 7 8 9 8 8 8 8 8 6 8 9 10 13 14 11 5 7 7 7 6 5 9 8 12 15 17 18 19 20 22 22 22 22 22 22 14 8 7 8 10 4 6 8 9
13 12 12 11 11 11 13 12 10 11 12 13 12 10 10 9 10 10 12 11 11 11 10 9 9 9 11 11 11 10 8 12 19 18 18 19 11 9 8 8 8 7 7 8 6 7 9 12 10 8 9 10 11 13 14 11 7 7 7 8 7 8 9 7 5 7 15 20 21 21 21 20 21 22 23 23 23 18 10 12 10 5 8 6 8
11 11 11 9 9 10 10 10 10 11 12 11 11 12 12 12 10 9 9 7 9 7 8 8 8 8 9 9 10 10 7 9 16 17 16 17 13 7 7 5 6 7 8 6 6 5 7 9 14 12 10 9 11 12 14 11 7 7 7 6 8 10 9 5 5 6 4 4 6 7 9 12 12 10 10 16 17 15 11 12 9 9 10 9 8
7 7 8 7 8 7 8 10 10 12 12 10 9 9 7 6 7 7 7 6 5 7 8 8 9 8 7 8 8 8 6 5 10 17 16 18 15 8 7 9 9 9 7 6 5 6 7 7 9 17 18 14 11 12 12 13 8 6 5 7 8 11 3 3 4 4 4 5 6 6 8 7 6 7 6 7 9 9 9 9 9 8 8 9 7
8 8 8 7 9 8 8 9 11 9 9 9 8 7 7 9 8 9 8 7 7 7 8 7 7 7 7 6 6 6 6 6 8 16 17 18 17 12 7 8 8 7 6 6 6 8 7 7 6 12 17 17 15 15 14 15 14 8 8 8 9 7 6 5 6 9 8 7 8 7 7 7 7 7 7 7 6 6 7 5 3 5 6 7 7
8 8 8 7 7 8 8 8 9 9 9 9 9 8 7 8 8 9 7 7 9 8 7 7 7 6 6 6 6 7 6 9 7 13 17 18 18 17 9 8 7 7 7 7 7 7 8 6 5 9 15 16 16 16 17 16 17 10 9 13 14 14 10 7 6 6 6 6 5 6 5 5 5 5 5 6 5 6 3 2 3 3 2 3 5
9 7 7 8 8 9 8 10 9 8 9 10 11 10 9 9 9 9 8 8 9 9 8 7 8 7 5 3 3 5 6 7 11 9 15 18 19 18 16 8 10 6 6 7 7 6 3 4 5 8 13 15 15 15 16 17 14 11 16 17 16 17 14 9 8 7 6 5 5 6 5 4 5 5 5 5 3 1 2 1 2 3 3 4 4
6 7 7 8 9 9 9 9 8 8 9 9 9 9 9 9 9 8 9 8 7 6 4 6 5 6 6 5 3 4 4 5 8 10 10 16 17 18 17 15 12 7 5 4 3 3 3 3 3 7 11 12 13 13 14 13 10 15 16 17 18 16 8 7 6 6 6 6 5 4 5 4 4 6 5 1 1 2 1 1 1 1 2 2 4
7 7 8 8 8 8 8 8 8 8 8 9 8 6 9 10 7 6 8 6 5 6 6 5 6 6 5 6 5 5 4 5 6 8 12 12 15 16 16 17 18 16 8 5 5 3 4 5 4 5 7 7 9 10 10 13 16 17 18 17 14 7 7 6 7 6 7 6 7 7 5 4 3 1 4 4 3 3 2 1 1 0 0 1 2
7 8 7 7 8 8 9 8 8 8 8 7 7 6 8 8 7 7 6 7 7 7 7 7 6 6 5 5 6 6 6 6 6 7 8 9 10 15 15 14 13 13 11 6 5 6 7 5 4 4 4 5 5 5 5 5 10 12 13 12 5 6 5 6 6 7 7 6 6 6 5 2 3 2 2 3 2 1 2 2 2 2 2 1 1
8 7 8 7 7 8 9 7 7 7 8 7 6 6 6 7 7 8 8 8 8 7 7 7 7 6 6 7 6 7 7 6 6 5 6 6 6 6 8 8 9 8 6 5 5 3 3 2 1 2 3 3 3 4 4 4 4 5 5 5 6 5 5 5 6 6 6 6 6 5 3 3 3 3 1 2 1 1 2 2 2 2 2 1 1
9 9 9 7 6 7 7 10 9 6 5 6 6 6 5 5 6 7 8 8 8 8 7 8 8 8 7 7 7 6 6 6 7 7 7 6 6 5 5 5 5 4 4 3 3 2 2 6 3 0 1 1 2 1 2 3 4 4 4 4 4 3 5 7 7 5 5 5 4 3 2 2 1 1 2 1 1 1 2 2 2 2 1 1 1
10 11 8 7 6 5 5 6 6 7 6 7 6 5 6 6 5 4 4 5 6 7 8 7 6 6 6 6 7 6 5 6 7 8 9 10 9 6 6 6 4 4 5 7 5 4 2 1 1 1 2 3 2 2 2 2 1 1 1 1 2 2 2 2 4 6 6 5 6 5 4 0 0 1 1 1 2 2 1 1 2 2 2 1 2
9 8 9 7 7 6 6 6 8 8 8 9 8 8 10 10 4 5 4 6 9 7 5 4 5 5 5 3 5 7 6 4 10 14 13 14 13 12 10 10 9 6 7 8 4 2 2 3 3 3 3 3 2 1 1 0 0 1 1 3 2 2 2 3 3 4 3 4 2 2 3 3 3 2 2 2 2 1 2 4 2 2 2 2 3
6 7 9 9 11 10 9 8 8 8 8 8 7 8 6 7 12 12 10 8 9 10 11 11 10 7 5 4 6 11 12 12 14 13 14 14 13 12 11 10 10 10 10 7 4 3 3 3 3 3 3 2 2 1 1 1 2 2 2 2 2 3 4 3 3 2 3 2 2 2 2 3 4 3 2 2 2 2 2 2 2 2 2 2 2
7 7 8 9 10 9 8 9 8 9 8 8 7 7 7 7 7 9 10 9 10 10 10 10 10 9 10 10 7 4 9 12 12 12 12 12 11 10 10 10 10 10 11 10 4 4 4 3 3 3 3 3 3 3 3 3 3 3 3 3 3 3 3 3 3 2 2 2 2 2 2 2 3 3 3 2 2 2 2 2 2 2 2 2 3
9 7 8 9 8 9 8 7 7 6 8 9 8 8 7 7 8 8 7 9 10 10 10 10 10 11 11 11 10 9 9 10 12 12 12 11 11 10 10 11 11 11 12 7 5 4 4 4 5 5 5 5 4 4 4 2 3 2 3 3 4 3 2 1 2 2 2 2 3 3 3 2 2 2 2 1 1 2 2 2 2 2 2 2 3
10 9 8 10 9 7 6 8 9 8 7 7 7 7 7 7 7 8 10 8 7 8 9 10 10 11 11 11 11 12 12 12 12 12 12 12 12 12 11 8 10 11 9 5 5 4 4 4 4 5 5 5 4 3 3 3 2 2 2 3 2 3 1 2 2 2 2 4 4 3 2 2 2 2 2 2 2 1 2 2 1 2 2 3 3
7 9 13 10 7 8 9 8 9 8 9 8 8 8 8 8 8 8 8 8 8 7 5 5 6 9 8 9 11 12 13 13 12 12 12 12 12 12 11 6 6 5 6 5 5 4 4 4 4 4 4 4 3 3 3 3 3 3 3 3 2 2 2 2 2 2 3 3 3 3 2 2 1 1 2 2 2 2 3 2 2 2 2 2 2
9 9 8 9 8 8 8 8 8 8 8 8 7 7 8 9 7 6 6 7 7 8 6 5 4 7 10 10 11 11 12 12 11 11 11 12 12 13 7 6 5 5 5 5 5 5 4 4 3 3 3 3 2 2 2 2 2 2 2 2 2 2 2 2 3 3 3 2 2 2 1 1 2 2 0 0 1 2 1 1 1 1 1 1 1
9 7 6 6 7 7 7 7 6 7 7 8 8 7 7 6 4 7 6 7 7 6 8 7 5 5 6 4 6 10 10 9 9 9 10 10 12 8 4 5 4 4 4 4 2 2 2 2 2 2 2 1 1 1 0 0 1 1 2 2 2 2 2 1 3 1 1 1 1 1 1 2 2 2 2 2 2 2 2 1 1 2 3 4 4
8 7 6 7 7 8 8 7 7 8 8 7 6 6 7 5 5 6 6 7 7 8 9 7 5 6 7 6 4 4 7 11 13 11 9 8 5 3 3 2 3 3 3 2 2 2 2 3 2 2 1 2 2 1 1 1 1 1 2 1 1 1 5 4 1 1 0 0 1 2 2 2 3 2 1 2 2 1 2 3 3 2 2 4 3
6 8 10 11 9 8 7 7 6 6 5 5 4 5 6 6 6 4 5 5 7 6 5 6 6 5 5 6 7 6 8 6 6 5 4 3 2 2 2 2 2 2 2 2 2 2 2 2 2 3 2 1 2 1 1 1 0 0 0 0 1 1 2 1 1 2 2 2 1 2 2 2 3 2 3 2 2 2 2 2 2 2 2 2 3
8 6 6 8 6 6 4 3 5 5 4 6 5 4 6 5 5 6 5 6 7 7 6 6 5 4 5 6 7 6 6 6 6 5 4 4 2 2 2 2 2 2 2 2 3 2 2 2 2 2 1 1 1 1 0 0 0 0 0 1 2 3 3 2 2 1 2 1 1 1 2 1 2 2 1 2 2 2 3 2 2 2 2 2 2
5 6 7 6 6 6 5 5 3 4 4 3 4 4 3 5 4 4 4 6 6 6 5 4 4 3 3 5 9 7 3 3 4 4 3 4 3 3 2 2 2 2 2 2 2 2 2 2 2 2 1 2 1 1 0 0 0 0 1 1 2 2 1 0 1 0 0 1 1 1 1 2 2 3 2 2 4 3 1 1 2 2 2 2 2
5 6 6 5 6 4 4 4 4 5 6 5 5 4 5 5 4 3 5 5 4 5 6 5 4 3 5 9 8 7 3 3 3 3 3 3 3 3 2 2 2 2 2 2 2 2 2 2 1 1 1 1 2 1 1 1 1 1 2 2 2 2 2 2 3 2 2 1 1 1 1 1 2 2 2 4 2 2 2 3 3 2 2 2 2
8 6 5 5 4 5 6 7 5 5 5 5 5 5 5 5 4 4 4 4 4 5 7 6 4 3 5 8 7 7 3 3 3 3 3 3 3 3 2 2 2 3 3 3 3 2 2 2 1 1 1 1 1 1 1 1 1 1 2 2 2 2 1 1 1 3 3 2 1 1 2 1 1 2 2 2 2 2 2 2 2 2 2 2 2
6 5 5 7 6 7 4 4 3 3 4 6 7 5 5 4 3 4 4 5 5 5 5 6 5 5 5 4 5 3 2 3 2 2 3 3 3 2 2 2 3 3 2 2 2 2 1 1 1 0 2 2 1 0 0 0 0 1 1 1 1 2 2 2 1 1 2 2 2 3 3 3 3 2 2 3 3 3 2 2 2 2 3 3 3
7 8 8 7 4 4 4 4 5 6 6 4 4 3 3 3 4 3 4 4 4 4 5 5 5 5 4 4 2 2 2 3 2 3 2 3 3 2 3 3 3 2 1 1 1 2 1 1 0 1 1 1 2 2 2 1 1 1 1 1 2 2 2 2 2 1 1 2 2 2 3 3 4 3 3 3 3 3 3 3 4 4 3 3 3
5 5 6 7 6 4 4 4 3 4 4 4 4 4 3 3 3 3 3 3 4 5 5 4 4 4 3 3 2 2 2 2 2 2 2 2 3 2 2 2 2 2 1 1 2 2 1 1 1 1 2 1 1 2 2 2 2 2 2 1 2 2 0 0 1 2 1 2 3 2 3 3 3 4 4 3 3 3 3 3 3 4 4 4 4
5 6 6 6 6 3 3 3 4 4 4 4 3 4 4 3 3 3 3 4 5 4 4 4 3 3 3 3 2 2 2 1 1 2 2 2 2 2 2 2 2 1 1 1 1 2 2 1 1 2 2 2 1 2 2 2 2 3 3 3 4 3 2 1 1 2 2 3 3 3 3 3 3 3 5 3 2 2 2 3 3 4 3 3 3
4 4 4 4 5 5 5 5 6 5 3 3 3 3 3 3 3 4 3 4 4 4 4 3 3 3 3 2 2 2 1 1 1 1 2 1 1 1 2 2 2 1 1 1 1 2 2 2 3 3 3 3 3 3 3 3 3 3 3 3 4 4 4 4 2 2 2 2 3 4 3 3 3 3 3 4 4 3 4 4 3 3 4 4 5
4 4 5 4 4 4 4 4 3 3 3 3 4 5 3 4 4 4 3 3 4 3 3 3 3 3 2 2 2 1 1 1 1 1 1 1 1 1 2 2 1 1 1 1 2 2 2 2 3 3 4 3 3 3 3 3 4 4 4 4 4 8 8 7 5 4 5 3 3 4 4 4 4 4 3 3 4 4 3 3 3 3 3 3 3
5 5 6 6 5 4 3 3 4 4 3 3 3 4 3 3 3 3 3 3 3 3 3 3 2 2 2 1 1 1 1 1 1 1 1 1 2 2 2 2 2 2 2 2 2 2 3 3 4 4 4 4 3 3 4 4 4 5 4 5 8 9 8 9 8 8 6 4 5 4 5 4 4 4 4 4 4 4 5 4 4 5 3 3 4
3 4 4 4 4 4 4 4 3 3 3 3 3 3 3 3 3 3 3 3 3 2 2 2 2 2 1 1 1 1 1 1 1 1 1 1 1 2 2 2 2 2 2 2 3 3 3 3 3 4 4 4 4 4 4 5 4 5 7 10 10 9 9 8 6 9 10 6 5 5 5 5 5 5 5 4 4 5 7 5 5 5 4 4 4
Wind_Direction
193 195 185 188 177 187 179 188 187 173 185 178 176 171 175 180 183 179 146 168 160 165 161 163 160 157 150 151 150 151 149 150 150 145 137 137 134 136 143 143 133 127 125 120 117 119 115 112 110 108 115 121 122 126 111 103 90 73 90 131 162 164 197 238 253 268 288 94 108 164 161 163 223 211 223 225 223 211 214 233 238 240 251 252 258
193 193 190 190 185 185 184 177 193 189 194 183 187 186 180 182 178 167 177 175 170 173 167 167 163 157 155 153 151 151 151 151 149 146 140 134 126 141 144 142 134 130 127 126 120 111 118 121 116 120 118 115 122 128 130 136 169 159 169 182 196 182 191 224 255 262 266 164 183 181 168 181 215 211 196 225 234 234 244 245 240 233 244 251 257
191 192 193 193 191 189 186 193 190 192 195 182 189 185 183 181 176 179 180 174 173 175 169 170 168 161 157 157 154 153 154 151 152 147 145 144 141 151 152 146 139 136 134 136 127 119 124 132 128 123 112 109 119 152 141 163 169 180 178 185 207 190 176 227 244 257 264 264 259 207 208 187 201 220 212 214 228 232 247 248 240 241 233 244 251
190 192 193 194 191 183 192 184 182 196 199 192 191 182 176 180 176 183 180 173 175 177 172 172 171 168 163 161 157 155 156 154 151 151 150 150 151 152 153 142 136 139 141 135 130 139 145 137 125 124 127 136 157 170 166 164 174 182 183 198 196 217 188 192 244 255 270 273 264 252 243 225 247 222 209 214 224 237 241 249 241 244 243 238 241
184 189 188 185 186 186 186 191 195 196 195 187 189 178 177 176 180 183 177 176 176 173 175 177 173 174 171 165 160 157 159 155 151 150 152 156 153 150 148 144 135 133 135 141 145 141 149 137 130 139 149 160 170 178 175 179 186 185 194 186 192 209 180 206 221 238 252 259 269 264 250 250 248 249 234 238 249 250 240 244 245 245 247 240 233
180 182 186 186 188 189 187 180 191 189 191 183 182 180 178 180 184 186 183 179 176 180 178 180 178 176 168 166 162 158 157 159 157 157 156 149 144 145 143 135 132 135 139 138 133 147 147 142 143 153 166 172 182 177 181 187 188 195 197 196 188 196 203 207 215 229 244 255 263 274 265 256 265 249 214 218 248 272 275 260 253 243 243 243 237
177 184 187 190 191 193 189 186 181 185 189 190 179 174 181 180 183 186 183 179 178 179 182 179 183 174 168 165 165 161 160 160 157 155 149 148 149 145 135 134 134 133 126 120 137 147 144 140 142 162 170 186 193 183 182 185 189 198 193 202 205 200 217 213 215 228 235 251 259 260 268 258 250 266 251 210 234 250 270 283 271 246 225 228 246
182 183 186 194 197 196 191 184 179 185 182 186 186 183 182 183 186 186 181 182 182 181 181 180 178 175 172 170 167 163 161 161 160 156 156 154 153 148 143 143 134 125 120 140 148 149 144 143 152 162 181 195 200 203 182 187 179 188 195 192 202 206 213 224 226 228 238 247 253 261 259 266 261 259 247 209 259 258 237 237 256 257 254 263 265
188 184 188 197 199 194 188 186 183 180 181 184 183 185 183 182 180 181 183 186 189 186 181 180 175 175 172 172 165 166 170 170 166 163 159 159 152 151 152 150 139 134 134 134 145 148 143 157 161 172 192 205 211 211 185 168 175 187 200 187 198 202 209 219 224 230 246 250 257 256 258 259 257 261 262 247 240 259 252 251 269 277 277 271 258
191 188 192 198 194 191 189 185 183 173 177 183 185 183 181 179 179 179 183 186 186 187 184 183 180 177 174 171 167 171 177 179 177 171 168 162 158 140 136 152 154 145 138 143 148 149 153 161 179 194 200 208 215 206 193 181 201 208 193 196 188 199 206 211 223 231 242 250 252 252 260 262 262 256 262 258 263 270 275 264 267 274 275 274 272
200 194 196 193 188 186 186 186 181 183 184 179 176 179 179 179 180 183 184 185 185 185 183 185 186 182 178 175 176 179 180 178 171 167 160 153 152 154 158 158 156 157 161 162 162 160 159 172 188 197 203 208 213 218 220 215 217 221 230 232 214 194 203 209 222 224 238 252 254 249 252 263 263 258 257 270 259 261 258 264 269 277 269 279 282
199 200 195 188 190 189 191 184 189 192 185 184 175 175 176 180 184 185 183 182 187 181 186 192 193 186 183 181 178 179 182 172 165 165 163 162 160 160 161 157 160 165 166 166 166 160 169 176 187 186 201 209 206 210 221 225 224 225 225 228 231 229 213 204 218 229 228 237 249 246 247 253 265 258 260 262 264 263 260 258 255 258 267 266 272
199 197 193 192 194 193 190 188 192 189 189 183 175 172 176 179 183 183 184 179 173 182 189 186 193 184 182 175 177 179 178 161 170 171 170 169 166 158 163 160 159 165 171 174 170 170 173 178 185 200 213 208 208 210 204 215 226 228 231 234 236 233 233 231 228 228 232 241 246 256 243 247 263 261 249 261 270 268 268 265 264 267 269 271 268
199 198 193 195 196 195 191 188 191 188 182 175 175 174 174 181 182 182 179 176 178 180 181 184 182 183 179 177 177 181 184 176 175 175 172 168 166 162 164 164 169 176 177 176 173 175 177 180 187 203 202 192 205 209 214 217 202 210 223 231 236 240 238 239 240 240 235 234 240 250 256 230 250 264 266 270 263 259 265 268 271 270 268 267 283
198 195 195 195 194 193 190 189 189 184 176 172 174 176 175 174 177 177 176 180 179 180 180 180 182 176 172 179 187 190 187 179 179 173 169 171 171 163 171 173 176 175 176 178 182 177 176 181 191 200 202 197 203 198 205 209 208 215 220 225 230 235 231 232 232 232 231 232 238 247 261 257 257 266 267 259 257 256 253 260 254 253 264 285 285
200 196 198 197 197 196 188 187 186 172 167 168 173 176 177 175 172 166 167 175 175 168 169 169 176 180 184 181 188 188 178 181 182 178 180 179 172 171 175 178 176 173 175 180 182 168 176 186 192 203 214 215 207 201 199 196 197 216 231 237 240 244 247 246 245 234 230 232 238 247 255 258 257 254 254 256 262 275 281 273 272 266 274 269 265
204 201 201 197 192 181 178 182 180 167 168 170 175 176 175 170 166 162 171 177 174 175 178 182 183 182 184 188 189 189 190 186 186 185 185 181 175 162 170 175 173 172 183 182 182 184 191 193 199 193 209 220 216 202 204 195 207 214 230 239 240 245 255 251 255 260 260 260 259 261 265 268 270 271 271 270 265 250 246 263 261 236 244 257 261
202 198 198 190 186 178 174 178 173 167 174 178 174 172 171 171 173 172 175 174 181 183 180 175 178 182 184 190 191 187 193 190 191 190 185 181 170 171 175 172 179 182 174 182 184 193 201 204 205 211 218 230 218 205 205 199 210 216 225 240 246 248 256 250 245 241 245 250 256 261 268 273 277 279 279 277 276 277 277 271 276 259 250 242 265
199 197 196 183 171 164 168 172 167 169 176 178 172 171 177 179 174 168 175 172 181 175 173 175 178 185 188 186 187 192 189 187 190 189 184 183 175 168 166 157 156 180 185 192 194 195 211 217 218 218 223 225 210 205 208 202 213 215 224 234 249 254 253 236 245 248 239 235 248 251 259 263 266 267 268 270 268 266 259 261 267 262 265 261 261
182 182 176 159 150 155 165 168 169 171 174 171 173 174 160 136 153 152 164 153 153 167 176 179 178 178 169 173 182 189 173 169 188 190 189 189 172 163 171 174 183 187 189 178 172 210 219 226 214 218 224 223 217 216 215 212 212 223 212 229 243 255 256 220 234 243 252 244 253 244 251 250 248 248 247 248 252 243 243 245 250 254 257 260 253
168 167 165 150 153 162 164 168 164 165 165 165 158 156 158 163 155 163 161 159 159 168 170 169 165 165 161 163 165 176 166 163 177 188 187 183 180 173 184 190 189 181 167 182 199 215 221 218 224 209 216 222 223 226 227 226 228 225 221 230 236 253 264 259 255 236 247 248 250 248 246 247 244 247 249 248 246 237 239 246 236 238 240 247 255
159 160 158 158 159 156 153 155 157 156 153 151 157 156 155 155 158 160 159 161 164 163 160 161 150 131 149 161 169 171 155 155 167 183 185 189 193 187 190 198 186 179 187 206 206 217 223 219 211 188 203 216 220 223 225 228 230 232 232 236 245 250 254 254 253 247 245 248 243 245 239 232 234 232 242 247 242 231 222 192 202 207 230 234 234
154 155 147 146 152 152 152 153 154 153 156 157 158 154 149 152 150 153 153 153 156 158 162 160 157 139 122 137 135 161 165 168 169 183 193 194 197 198 199 194 194 192 201 211 211 218 209 208 215 192 194 206 215 220 225 228 235 241 246 251 253 258 262 256 250 249 245 233 237 240 240 234 242 253 254 252 238 158 159 170 197 221 234 245 255
142 143 144 145 145 150 152 151 148 150 153 152 156 151 149 150 152 159 158 153 147 146 132 151 143 146 153 147 148 152 168 168 181 181 192 199 200 203 205 206 203 207 205 213 212 213 213 223 229 196 190 196 208 218 226 233 246 253 258 262 268 273 277 277 275 270 269 263 250 247 239 230 239 252 253 208 100 107 117 130 156 230 224 249 260
138 141 140 142 143 144 143 146 147 147 151 152 146 122 144 147 136 143 147 133 126 134 147 144 157 160 155 164 161 164 160 173 189 192 194 202 208 210 213 214 219 218 219 220 221 221 220 228 236 176 178 200 217 232 246 258 263 263 265 268 271 269 265 264 264 264 261 255 256 263 260 243 243 84 80 93 98 107 123 172 146 187 335 284 263
139 138 137 142 143 139 140 142 145 148 146 152 144 138 139 142 141 145 137 148 151 155 161 159 160 158 163 163 163 165 174 183 190 193 197 199 208 214 214 216 219 223 227 228 208 218 233 237 163 187 217 231 242 244 240 247 258 261 262 266 263 259 257 258 259 259 259 264 266 264 259 274 91 96 95 110 137 170 145 196 195 225 177 199 254
135 135 138 133 138 143 144 144 141 142 148 139 134 133 137 145 140 148 154 153 158 160 150 156 160 165 170 181 180 171 168 173 174 171 176 182 189 198 212 220 220 222 228 228 234 231 228 218 175 86 61 12 322 301 304 306 288 256 251 246 245 246 247 241 247 252 260 267 270 268 274 100 120 115 173 150 180 198 156 180 214 224 175 234 211
141 140 143 135 136 144 142 134 132 130 127 128 119 124 124 133 142 154 161 160 161 164 163 172 177 179 179 173 168 157 165 174 181 178 180 181 179 175 184 188 189 195 196 200 192 187 133 92 87 158 226 249 246 219 232 235 240 244 244 243 238 241 254 263 270 271 267 262 265 273 96 151 146 172 124 174 200 156 142 171 205 242 202 138 287
145 144 139 131 128 122 117 133 133 127 120 126 115 120 145 153 142 140 160 177 174 165 168 165 172 171 167 164 161 169 170 185 196 179 178 179 173 164 168 172 171 170 173 162 110 96 104 110 136 160 192 198 212 215 212 217 240 246 230 266 284 265 255 233 248 259 265 270 272 273 281 18 196 118 168 203 221 171 175 152 249 171 273 191 223
135 137 146 137 137 132 134 135 141 140 137 136 116 76 56 65 95 146 121 81 88 93 122 147 152 152 152 148 163 174 186 179 152 168 169 172 174 164 156 161 162 150 153 151 130 129 155 164 178 164 182 181 188 189 195 217 278 308 298 272 258 247 243 249 257 262 269 282 291 288 288 279 271 219 211 234 225 164 181 197 221 204 169 234 237
122 134 148 148 151 149 150 147 148 145 138 129 128 127 118 71 67 82 93 98 97 94 91 100 116 133 141 121 89 101 108 128 149 161 163 167 171 169 163 162 160 155 146 135 140 150 168 171 180 163 167 171 183 202 247 240 250 246 246 236 241 240 238 237 245 265 277 266 274 280 240 239 248 257 234 224 208 214 158 203 183 228 216 225 253
142 148 147 147 147 147 149 145 144 141 133 135 127 131 125 112 84 79 98 108 110 110 110 114 121 121 119 126 128 110 121 126 132 140 147 153 159 162 163 158 154 154 157 150 145 171 176 181 184 180 181 184 198 203 216 237 237 238 248 258 257 248 225 226 232 228 233 255 258 252 255 255 258 253 246 241 217 214 168 198 192 199 228 229 236
142 122 139 142 141 141 132 129 136 122 138 141 139 137 131 128 123 118 98 107 113 115 117 118 120 120 122 130 134 137 138 136 136 138 142 145 147 150 154 159 162 165 165 172 168 177 187 193 199 207 207 200 201 204 218 229 235 230 243 255 265 268 268 217 191 179 204 232 243 244 247 239 242 244 238 218 172 214 227 199 209 181 192 229 253
151 153 145 148 145 140 136 142 141 140 136 137 137 135 137 136 132 132 130 125 109 103 105 113 119 118 120 122 126 134 137 141 141 143 146 150 151 156 157 164 173 178 182 183 196 196 200 202 193 185 195 197 196 203 214 220 226 236 250 262 267 280 90 119 151 215 224 241 241 239 238 238 220 198 233 166 190 202 214 213 187 192 229 228 239
140 136 141 144 135 143 148 143 141 137 142 145 146 146 141 138 139 141 143 141 139 133 120 93 110 134 135 130 132 133 138 142 146 149 151 154 156 157 154 156 171 186 194 199 203 209 211 211 212 205 186 181 191 189 203 208 214 233 244 248 253 256 151 181 206 221 225 236 240 226 213 184 164 183 196 186 179 189 203 196 220 213 221 257 273
137 128 140 143 141 140 135 142 144 145 149 149 148 139 136 138 144 140 134 132 135 134 124 106 85 81 107 128 135 138 144 147 152 156 158 161 164 165 165 177 170 187 190 202 200 206 208 216 204 195 174 180 190 194 204 200 230 236 239 239 241 258 247 223 226 224 230 224 231 237 155 122 176 176 162 153 177 201 236 222 214 228 210 227 257
122 121 122 135 141 128 116 125 134 135 131 132 129 122 124 132 129 134 136 139 133 124 135 134 117 107 75 54 119 130 127 134 145 154 165 170 176 177 181 188 184 183 185 184 124 124 121 95 90 81 83 110 87 122 129 235 255 264 280 271 259 251 256 238 236 235 166 206 204 142 158 190 139 162 158 188 209 179 194 214 218 230 225 235 242
142 138 134 136 132 128 123 117 115 119 120 119 110 116 121 109 119 138 144 141 134 135 145 148 146 147 149 148 113 127 135 129 122 119 129 145 158 147 145 128 141 163 160 133 139 129 123 118 118 127 127 128 158 185 184 213 209 198 221 233 250 239 255 262 285 70 51 78 178 149 171 158 137 154 176 175 204 209 209 183 186 211 236 215 214
112 116 122 124 127 115 107 107 116 121 108 115 122 124 126 124 123 117 111 112 130 135 136 143 155 155 146 146 145 139 128 138 156 162 147 135 109 110 113 131 135 142 144 131 133 139 132 136 138 133 146 160 154 176 189 222 261 285 318 315 282 270 249 251 204 167 186 200 218 158 157 168 151 163 170 184 201 208 215 188 189 206 224 234 230
102 108 109 107 117 118 106 110 117 116 124 127 131 116 116 127 128 126 126 134 139 142 144 150 147 125 130 147 154 156 158 160 168 168 156 156 146 140 136 146 158 155 144 127 135 140 135 126 128 134 139 133 130 132 69 69 12 326 307 230 227 246 251 233 234 161 186 200 190 161 154 174 153 146 161 202 207 199 185 195 198 206 217 228 260
106 111 121 119 114 111 114 119 114 122 121 110 113 123 123 109 106 121 122 131 132 137 138 130 108 98 124 149 165 170 159 151 136 130 148 149 145 149 166 169 160 139 123 119 119 110 119 112 101 111 111 120 108 113 131 113 228 254 241 236 247 255 255 75 90 104 215 142 193 170 169 155 159 156 193 210 210 206 180 177 199 204 211 222 229
111 110 109 115 127 118 116 105 101 117 109 115 123 113 112 114 111 109 115 106 96 114 108 97 99 112 146 156 158 150 117 96 112 118 119 126 130 143 128 91 71 90 91 94 100 105 109 112 117 122 125 113 117 127 122 157 201 217 224 226 222 214 221 196 176 176 164 195 181 175 179 162 173 192 205 212 178 188 190 190 193 205 213 219 216
83 91 103 110 110 110 103 102 94 96 101 96 91 103 110 106 90 99 95 91 98 119 126 126 125 125 150 159 156 140 90 101 105 124 124 129 129 116 109 111 99 79 66 59 54 63 70 90 105 94 125 129 125 144 174 202 207 211 226 212 216 211 204 229 148 152 170 192 201 176 161 203 203 188 191 201 202 191 191 193 196 207 216 213 221
103 94 92 91 86 81 85 100 101 89 77 92 98 96 98 92 92 103 103 116 117 113 119 126 128 133 124 131 134 111 106 113 125 118 121 115 115 118 110 98 89 87 83 86 80 74 84 92 118 107 88 103 114 96 33 312 2 211 257 232 226 208 204 202 204 185 172 176 190 178 179 191 208 206 195 190 183 187 200 185 199 208 222 218 210
79 97 105 104 98 96 93 72 72 88 105 103 95 87 88 94 103 97 110 113 119 118 119 120 120 124 132 130 124 117 111 118 116 106 117 112 108 96 95 91 99 107 101 116 110 108 101 121 106 142 154 182 153 164 200 222 216 226 234 222 228 227 203 194 201 180 151 165 198 197 192 178 188 202 201 190 183 186 208 199 195 208 218 228 226
91 93 93 100 97 91 97 99 103 112 114 112 115 108 100 86 84 104 109 103 114 117 117 115 115 118 122 129 122 117 119 107 112 110 106 97 104 97 95 105 97 112 143 152 128 136 170 159 172 185 177 192 176 178 188 190 200 216 224 242 227 231 258 75 92 108 144 174 209 209 200 191 188 194 194 194 183 185 201 217 195 196 205 218 224
97 117 118 123 120 97 95 106 113 109 100 101 92 99 105 102 99 92 94 104 109 112 112 114 117 122 122 121 122 119 115 114 102 100 101 87 79 88 92 104 123 151 155 143 127 152 164 192 209 198 213 223 219 205 220 220 200 198 200 210 216 215 224 211 164 162 179 185 197 210 212 196 196 193 197 193 202 201 187 202 200 215 218 223 223
85 92 97 95 100 104 105 108 111 106 87 88 87 89 92 99 101 101 102 106 104 102 101 100 99 97 100 99 90 93 90 92 84 82 91 114 140 146 130 131 150 168 154 156 165 181 184 181 187 202 211 218 219 228 223 218 221 222 212 206 198 192 189 177 166 183 192 181 183 199 203 208 222 206 187 179 198 200 198 211 207 211 208 213 227
73 87 97 93 93 93 98 102 101 104 103 104 105 107 112 109 105 108 105 97 98 95 99 99 94 89 91 92 92 85 87 89 102 122 136 162 143 138 147 162 147 141 151 199 196 185 192 204 199 204 213 215 215 215 224 226 229 224 222 218 213 208 190 189 194 196 194 191 187 186 198 202 208 220 213 184 188 197 207 211 203 204 203 202 202
85 90 101 105 100 94 86 87 89 92 90 97 99 100 99 96 94 93 97 93 88 85 77 81 90 98 108 112 121 138 140 161 171 176 172 168 154 154 148 152 163 190 198 211 224 209 200 208 207 216 217 219 220 222 223 225 228 228 226 223 229 227 219 208 203 202 193 191 190 190 190 200 203 203 205 200 194 199 207 215 211 213 208 209 210
65 69 63 65 73 77 81 86 84 81 88 93 95 96 101 100 99 97 93 92 95 92 96 98 100 96 92 107 117 149 158 170 166 158 164 161 161 159 165 164 179 195 220 225 229 232 226 222 223 214 210 217 220 223 226 230 230 231 235 239 239 233 223 212 205 205 199 192 187 189 190 195 199 202 203 196 185 192 207 209 208 205 206 205 208